Time,TemperatureF,DewpointF,PressureIn,WindDirection,WindDirectionDegrees,WindSpeedMPH,WindSpeedGustMPH,Humidity,HourlyPrecipIn,Conditions,Clouds,dailyrainin,SoftwareType,DateUTC
2013-10-12 00:14:00,60.0,58.0,-100.00,NE,35,0.0,0.0,93,0.00,,,0.00,,2013-10-12 04:14:00,
2013-10-12 00:24:00,60.0,58.0,-100.00,NE,35,0.0,0.0,93,0.00,,,0.00,,2013-10-12 04:24:00,
2013-10-12 00:54:00,60.0,58.0,-100.00,NNE,28,0.0,0.0,94,0.00,,,0.00,,2013-10-12 04:54:00,
2013-10-12 01:13:00,60.0,58.0,-100.00,NNW,344,0.0,0.0,94,0.00,,,0.00,,2013-10-12 05:13:00,
2013-10-12 01:23:00,60.0,58.0,-100.00,NNW,344,0.0,0.0,94,0.00,,,0.00,,2013-10-12 05:23:00,
2013-10-12 01:32:00,60.0,59.0,-100.00,NNE,27,0.0,0.0,95,0.00,,,0.00,,2013-10-12 05:32:00,
2013-10-12 01:52:00,60.0,58.0,-100.00,NE,52,0.0,0.0,95,0.00,,,0.00,,2013-10-12 05:52:00,
2013-10-12 02:12:00,60.0,59.0,-100.00,NNE,27,0.0,0.0,95,0.00,,,0.00,,2013-10-12 06:12:00,
2013-10-12 02:22:00,60.0,59.0,-100.00,NNE,27,0.0,0.0,95,0.00,,,0.00,,2013-10-12 06:22:00,
2013-10-12 02:52:00,60.0,59.0,-100.00,NE,34,0.0,0.0,96,0.00,,,0.00,,2013-10-12 06:52:00,
2013-10-12 03:12:00,60.0,59.0,-100.00,NE,48,0.0,0.0,96,0.00,,,0.00,,2013-10-12 07:12:00,
2013-10-12 03:22:00,60.0,59.0,-100.00,NE,48,0.0,0.0,96,0.00,,,0.00,,2013-10-12 07:22:00,
2013-10-12 03:52:00,60.0,59.0,-100.00,NNW,336,0.0,0.0,96,0.00,,,0.00,,2013-10-12 07:52:00,
2013-10-12 04:02:00,60.0,59.0,-100.00,NNW,336,0.0,0.0,96,0.00,,,0.00,,2013-10-12 08:02:00,
2013-10-12 04:42:00,60.0,59.0,-100.00,NNW,329,0.0,0.0,98,0.00,,,0.00,,2013-10-12 08:42:00,
2013-10-12 04:51:00,59.0,59.0,-100.00,NNE,18,0.0,0.0,98,0.00,,,0.00,,2013-10-12 08:51:00,
2013-10-12 04:52:00,59.0,59.0,-100.00,NNW,335,0.0,0.0,99,0.00,,,0.00,,2013-10-12 08:52:00,
2013-10-12 05:11:00,59.0,59.0,-100.00,NE,42,0.0,0.0,99,0.00,,,0.00,,2013-10-12 09:11:00,
2013-10-12 05:22:00,59.0,59.0,-100.00,NE,42,0.0,0.0,99,0.00,,,0.00,,2013-10-12 09:22:00,
2013-10-12 05:43:00,59.0,59.0,-100.00,NNE,18,0.0,0.0,98,0.00,,,0.00,,2013-10-12 09:43:00,
2013-10-12 06:12:00,59.0,58.0,-100.00,North,357,0.0,0.0,97,0.00,,,0.00,,2013-10-12 10:12:00,
2013-10-12 06:23:00,59.0,58.0,-100.00,North,357,0.0,0.0,97,0.00,,,0.00,,2013-10-12 10:23:00,
2013-10-12 06:52:00,59.0,58.0,-100.00,NNW,343,0.0,0.0,98,0.00,,,0.00,,2013-10-12 10:52:00,
2013-10-12 07:12:00,59.0,58.0,-100.00,NNW,329,0.0,0.0,97,0.00,,,0.00,,2013-10-12 11:12:00,
2013-10-12 07:22:00,59.0,58.0,-100.00,NNW,329,0.0,0.0,97,0.00,,,0.00,,2013-10-12 11:22:00,
2013-10-12 07:52:00,59.0,58.0,-100.00,NNW,346,0.0,0.0,96,0.00,,,0.00,,2013-10-12 11:52:00,
2013-10-12 08:11:00,59.0,58.0,-100.00,North,0,0.0,0.0,97,0.00,,,0.00,,2013-10-12 12:11:00,
2013-10-12 08:22:00,59.0,58.0,-100.00,North,0,0.0,0.0,97,0.00,,,0.00,,2013-10-12 12:22:00,
2013-10-12 08:42:00,59.0,58.0,-100.00,NNW,347,0.0,0.0,99,0.00,,,0.00,,2013-10-12 12:42:00,
2013-10-12 08:52:00,59.0,59.0,-100.00,NNW,336,0.0,0.0,99,0.17,,,0.06,,2013-10-12 12:52:00,
2013-10-12 09:22:00,59.0,59.0,-100.00,North,354,0.0,0.0,100,0.00,,,0.08,,2013-10-12 13:22:00,
2013-10-12 09:52:00,60.0,59.0,-100.00,North,360,0.0,1.0,98,0.00,,,0.08,,2013-10-12 13:52:00,
2013-10-12 10:12:00,60.0,60.0,-100.00,North,357,2.0,6.0,98,0.00,,,0.08,,2013-10-12 14:12:00,
2013-10-12 10:21:00,60.0,60.0,-100.00,North,357,2.0,6.0,98,0.00,,,0.08,,2013-10-12 14:21:00,
2013-10-12 10:52:00,61.0,60.0,-100.00,North,7,2.0,8.0,98,0.00,,,0.08,,2013-10-12 14:52:00,
2013-10-12 11:11:00,62.0,60.0,-100.00,North,7,0.0,5.0,95,0.00,,,0.08,,2013-10-12 15:11:00,
2013-10-12 11:22:00,62.0,60.0,-100.00,North,7,0.0,5.0,95,0.00,,,0.08,,2013-10-12 15:22:00,
2013-10-12 11:31:00,63.0,61.0,-100.00,North,6,0.0,0.0,93,0.00,,,0.08,,2013-10-12 15:31:00,
2013-10-12 11:53:00,63.0,61.0,-100.00,North,1,0.0,0.0,92,0.00,,,0.08,,2013-10-12 15:53:00,
2013-10-12 12:13:00,63.0,61.0,-100.00,North,6,0.0,0.0,93,0.00,,,0.08,,2013-10-12 16:13:00,
2013-10-12 12:23:00,63.0,61.0,-100.00,North,6,0.0,0.0,93,0.00,,,0.08,,2013-10-12 16:23:00,
2013-10-12 12:53:00,64.0,61.0,-100.00,NNE,20,0.0,0.0,91,0.00,,,0.08,,2013-10-12 16:53:00,
2013-10-12 13:03:00,64.0,61.0,-100.00,NNE,20,0.0,0.0,91,0.00,,,0.08,,2013-10-12 17:03:00,
2013-10-12 13:23:00,64.0,61.0,-100.00,NNE,23,0.0,0.0,90,0.00,,,0.08,,2013-10-12 17:23:00,
2013-10-12 13:53:00,66.0,61.0,-100.00,North,352,0.0,0.0,86,0.00,,,0.08,,2013-10-12 17:53:00,
2013-10-12 14:12:00,66.0,63.0,-100.00,NNE,27,0.0,0.0,88,0.00,,,0.08,,2013-10-12 18:12:00,
2013-10-12 14:22:00,66.0,63.0,-100.00,NNE,27,0.0,0.0,88,0.00,,,0.08,,2013-10-12 18:22:00,
2013-10-12 14:42:00,67.0,62.0,-100.00,NNE,14,0.0,0.0,85,0.00,,,0.08,,2013-10-12 18:42:00,
2013-10-12 14:52:00,68.0,62.0,-100.00,NNW,346,0.0,0.0,82,0.00,,,0.08,,2013-10-12 18:52:00,
2013-10-12 15:11:00,67.0,62.0,-100.00,NNE,20,0.0,0.0,84,0.00,,,0.08,,2013-10-12 19:11:00,
2013-10-12 15:22:00,67.0,62.0,-100.00,NNE,20,0.0,0.0,84,0.00,,,0.08,,2013-10-12 19:22:00,
2013-10-12 15:42:00,67.0,62.0,-100.00,NE,51,0.0,0.0,83,0.00,,,0.08,,2013-10-12 19:42:00,
2013-10-12 15:52:00,67.0,62.0,-100.00,ENE,58,0.0,0.0,84,0.00,,,0.08,,2013-10-12 19:52:00,
2013-10-12 16:12:00,67.0,62.0,-100.00,NE,48,0.0,1.0,85,0.00,,,0.08,,2013-10-12 20:12:00,
2013-10-12 16:22:00,67.0,62.0,-100.00,NE,48,0.0,1.0,85,0.00,,,0.08,,2013-10-12 20:22:00,
2013-10-12 16:52:00,67.0,63.0,-100.00,NE,38,0.0,0.0,85,0.00,,,0.08,,2013-10-12 20:52:00,
2013-10-12 17:11:00,67.0,63.0,-100.00,ENE,69,0.0,0.0,87,0.00,,,0.08,,2013-10-12 21:11:00,
2013-10-12 17:22:00,67.0,63.0,-100.00,ENE,69,0.0,0.0,87,0.00,,,0.08,,2013-10-12 21:22:00,
2013-10-12 17:54:00,67.0,63.0,-100.00,NNE,28,0.0,0.0,88,0.00,,,0.08,,2013-10-12 21:54:00,
2013-10-12 18:13:00,67.0,63.0,-100.00,ENE,64,0.0,0.0,89,0.00,,,0.08,,2013-10-12 22:13:00,
2013-10-12 18:25:00,67.0,63.0,-100.00,ENE,64,0.0,0.0,89,0.00,,,0.08,,2013-10-12 22:25:00,
2013-10-12 18:52:00,66.0,63.0,-100.00,NNE,27,0.0,0.0,93,0.00,,,0.08,,2013-10-12 22:52:00,
2013-10-12 18:54:00,66.0,63.0,-100.00,ENE,66,0.0,0.0,90,0.00,,,0.08,,2013-10-12 22:54:00,
2013-10-12 19:12:00,66.0,63.0,-100.00,NNE,18,0.0,0.0,91,0.00,,,0.08,,2013-10-12 23:12:00,
2013-10-12 19:22:00,66.0,63.0,-100.00,NNE,18,0.0,0.0,91,0.00,,,0.08,,2013-10-12 23:22:00,
2013-10-12 19:42:00,66.0,63.0,-100.00,NNE,27,0.0,0.0,93,0.00,,,0.08,,2013-10-12 23:42:00,
2013-10-12 20:12:00,64.0,63.0,-100.00,NE,54,1.0,4.0,94,0.00,,,0.10,,2013-10-13 00:12:00,
2013-10-12 20:22:00,64.0,63.0,-100.00,NE,54,1.0,4.0,94,0.00,,,0.10,,2013-10-13 00:22:00,
2013-10-12 20:52:00,63.0,63.0,-100.00,NNE,20,0.0,0.0,97,0.00,,,0.12,,2013-10-13 00:52:00,
2013-10-12 21:12:00,63.0,63.0,-100.00,NNE,28,0.0,0.0,97,0.00,,,0.12,,2013-10-13 01:12:00,
2013-10-12 21:22:00,63.0,63.0,-100.00,NNE,28,0.0,0.0,97,0.00,,,0.12,,2013-10-13 01:22:00,
2013-10-12 21:42:00,63.0,62.0,-100.00,ENE,58,3.0,8.0,95,0.00,,,0.12,,2013-10-13 01:42:00,
2013-10-12 21:52:00,63.0,62.0,-100.00,ENE,64,0.0,0.0,97,0.00,,,0.13,,2013-10-13 01:52:00,
2013-10-12 22:12:00,62.0,62.0,-100.00,NE,48,0.0,0.0,99,0.00,,,0.17,,2013-10-13 02:12:00,
2013-10-12 22:22:00,62.0,62.0,-100.00,NE,48,0.0,0.0,99,0.00,,,0.17,,2013-10-13 02:22:00,
2013-10-12 22:43:00,62.0,62.0,-100.00,NE,48,0.0,0.0,99,0.00,,,0.17,,2013-10-13 02:43:00,
2013-10-12 22:52:00,62.0,62.0,-100.00,NNW,340,0.0,0.0,99,0.13,,,0.26,,2013-10-13 02:52:00,
2013-10-12 23:12:00,62.0,62.0,-100.00,NE,38,0.0,0.0,100,0.00,,,0.26,,2013-10-13 03:12:00,
2013-10-12 23:23:00,62.0,62.0,-100.00,NE,38,0.0,0.0,100,0.00,,,0.26,,2013-10-13 03:23:00,
2013-10-12 23:54:00,62.0,62.0,-100.00,ENE,65,0.0,0.0,100,0.00,,,0.27,,2013-10-13 03:54:00,